Location: Proctor
(47.8934°N, 114.3048°W)
Time: 01:30:43
(UTC+00:00)

Courier 1B - All Passes

Search period start: 13 June 2024 00:00
Search period end: 23 June 2024 00:00
Orbit: 962 x 1208 km, 28.3° (Epoch: 12 June)

Date Brightness Start Highest point End Pass type
(mag) Time Alt. Az. Time Alt. Az. Time Alt. Az.
13 Jun - 11:02:31 10° S 11:03:51 10° SSE 11:05:11 10° SSE visible
13 Jun - 12:52:03 10° SSW 12:56:38 17° S 13:01:10 10° SE daylight
13 Jun - 14:45:22 10° SW 14:49:29 15° S 14:53:32 10° SSE daylight
14 Jun - 11:58:43 10° SSW 12:02:59 16° S 12:07:15 10° SE daylight
14 Jun - 13:51:20 10° SW 13:55:51 16° S 14:00:20 10° SSE daylight
15 Jun - 11:05:41 10° SSW 11:09:22 14° SSE 11:13:04 10° SE daylight
15 Jun - 12:57:31 10° SW 13:02:13 17° S 13:06:53 10° SE daylight
15 Jun - 14:52:10 10° SW 14:55:01 12° SSW 14:57:51 10° S daylight
16 Jun - 10:13:08 10° S 10:15:46 12° SSE 10:18:24 10° SE visible
16 Jun - 12:03:54 10° SW 12:08:33 17° S 12:13:14 10° SE daylight
16 Jun - 13:57:38 10° SW 14:01:25 14° SSW 14:05:11 10° SSE daylight
17 Jun - 11:10:31 10° SSW 11:14:55 16° S 11:19:23 10° SE daylight
17 Jun - 13:03:30 10° SW 13:07:47 16° S 13:12:05 10° SSE daylight
18 Jun - 10:17:22 10° SSW 10:21:18 15° S 10:25:19 10° SE visible
18 Jun - 12:09:38 10° SW 12:14:09 17° S 12:18:43 10° SSE daylight
18 Jun - 14:05:18 10° SSW 14:06:56 11° SSW 14:08:33 10° S daylight
19 Jun - 09:24:34 10° S 09:27:43 13° SSE 09:30:54 10° SE visible
19 Jun - 11:15:59 10° SW 11:20:30 17° S 11:25:07 10° SE daylight
19 Jun - 13:10:13 10° SW 13:13:21 13° SSW 13:16:29 10° S daylight
20 Jun - 08:32:39 10° S 08:34:10 11° SSE 08:35:42 10° SSE visible
20 Jun - 10:22:32 10° SSW 10:26:52 16° S 10:31:19 10° SE visible
20 Jun - 12:15:55 10° SW 12:19:44 14° SSW 12:23:35 10° SSE daylight
21 Jun - 09:29:19 10° SSW 09:33:17 15° S 09:37:20 10° SE visible
21 Jun - 11:21:58 10° SW 11:26:06 16° S 11:30:19 10° SSE daylight
22 Jun - 08:36:23 10° SSW 08:39:43 14° SSE 08:43:06 10° SE visible
22 Jun - 10:28:16 10° SW 10:32:29 16° S 10:36:49 10° SSE visible
22 Jun - 12:23:29 10° SSW 12:25:16 11° SSW 12:27:05 10° S daylight
